Location: Colonia Mina de C?rbuni
(46.1667°N, 22.7167°E)
Time: 20:50:23
(UTC+00:00)

deb Explorer IX - Pass Details

Date: 22 April 2024
Orbit: 513 x 891 km, 38.7° (Epoch: 21 May)

Event Time Altitude Azimuth Distance (km) Brightness Sun altitude
Rises 11:54:20 0° 264° (W) 3,468 ? 51.6°
Reaches altitude 10° 11:57:01 10° 257° (WSW) 2,557 ? 51.4°
Maximum altitude 12:02:40 38° 191° (SSW) 1,346 ? 50.8°
Drops below altitude 10° 12:08:20 10° 126° (SE) 2,559 ? 50.1°
Sets 12:11:02 0° 118° (ESE) 3,471 ? 49.8°
